Weather History for Eugene, OR

Change the Weather History Date:

Tuesday, July 2, 2013

  Actual Average Record
Temperature  
Mean Temperature 78 °F 64 °F  
Max Temperature 96 °F 79 °F 98 °F (1942)
Min Temperature 60 °F 50 °F 39 °F (1954)
Degree Days  
Heating Degree Days 0 2  
Month to date heating degree days 0 5  
Since 1 June heating degree days 92 162  
Since 1 July heating degree days 0 5  
Cooling Degree Days 13 2  
Month to date cooling degree days 27 4  
Year to date cooling degree days 80 28  
Since 1 June cooling degree days 75 23  
Growing Degree Days 28 (Base 50)    
Moisture  
Dew Point 61 °F    
Average Humidity 61    
Maximum Humidity 90    
Minimum Humidity 31    
Precipitation  
Precipitation 0.00 in 0.03 in 0.63 in (1990)
Month to date precipitation 0.00 0.05  
Year to date precipitation 9.67 24.91  
Snow  
Snow 0.00 in - - ()
Month to date snowfall 0.0  
Since 1 June snowfall 0.0  
Since 1 July snowfall 0.0  
Snow Depth 0.00 in    
Sea Level Pressure  
Sea Level Pressure 30.03 in    
Wind  
Wind Speed 7 mph (NNE)    
Max Wind Speed 17 mph    
Max Gust Speed 22 mph    
Visibility 10 miles    
Events      
T = Trace of Precipitation, MM = Missing Value Source: NWS Daily Summary

Daily Weather History Graph

Daily Weather History Graph

Search for Another Location

Airport:

Trip Planner

Search our weather history database for the weather conditions in past years. The results will help you decide how hot, cold, wet, or windy it might be!

Date:

Astronomy

Jul. 02, 2013 Rise Set
Actual Time 5:34 AM PDT 8:59 PM PDT
Civil Twilight 4:57 AM PDT 9:35 PM PDT
Nautical Twilight 4:10 AM PDT 10:22 PM PDT
Astronomical Twilight 3:10 AM PDT 11:22 PM PDT
Moon 1:46 AM PDT (7/2) 4:13 PM PDT (7/2)
Length of Visible Light 16h 37m
Length of Day
15h 25m
Waning Crescent, 25% of the Moon is Illuminated
Jul 2
Waning Crescent
Jul 8
New
Jul 15
First Quarter
Jul 22
Full
Jul 29
Last Quarter

Hourly Weather History & Observations

Time (PDT) Temp. Heat Index Dew Point Humidity Pressure Visibility Wind Dir Wind Speed Gust Speed Precip Events Conditions
12:54 AM 68.0 °F - 62.1 °F 81% 30.01 in 10.0 mi East 4.6 mph - N/A   Clear
1:54 AM 68.0 °F - 61.0 °F 78% 30.02 in 10.0 mi Calm Calm - N/A   Clear
2:54 AM 64.9 °F - 60.1 °F 84% 30.03 in 10.0 mi Calm Calm - N/A   Clear
3:54 AM 63.0 °F - 59.0 °F 87% 30.03 in 10.0 mi North 4.6 mph - N/A   Clear
4:54 AM 61.0 °F - 57.9 °F 90% 30.05 in 10.0 mi NNE 3.5 mph - N/A   Clear
5:54 AM 61.0 °F - 57.9 °F 90% 30.06 in 10.0 mi Calm Calm - N/A   Clear
7:54 AM 69.1 °F - 61.0 °F 75% 30.07 in 10.0 mi North 3.5 mph - N/A   Clear
8:54 AM 72.0 °F - 61.0 °F 68% 30.08 in 10.0 mi NNW 6.9 mph - N/A   Clear
9:54 AM 75.9 °F - 61.0 °F 60% 30.07 in 10.0 mi NE 5.8 mph - N/A   Partly Cloudy
10:54 AM 78.1 °F - 62.1 °F 58% 30.05 in 10.0 mi Variable 3.5 mph - N/A   Partly Cloudy
11:54 AM 84.0 °F 84.9 °F 63.0 °F 49% 30.05 in 10.0 mi North 6.9 mph - N/A   Scattered Clouds
12:54 PM 88.0 °F 89.3 °F 64.0 °F 45% 30.03 in 10.0 mi NNE 8.1 mph - N/A   Partly Cloudy
1:54 PM 91.0 °F 92.6 °F 64.0 °F 41% 30.02 in 10.0 mi North 8.1 mph - N/A   Partly Cloudy
2:54 PM 91.9 °F 93.3 °F 64.0 °F 39% 30.01 in 10.0 mi NNE 9.2 mph - N/A   Partly Cloudy
3:54 PM 93.9 °F 94.8 °F 62.1 °F 35% 30.00 in 10.0 mi North 8.1 mph - N/A   Partly Cloudy
4:54 PM 95.0 °F 95.2 °F 61.0 °F 32% 29.98 in 10.0 mi NNE 10.4 mph - N/A   Partly Cloudy
5:54 PM 91.0 °F 90.5 °F 60.1 °F 35% 29.99 in 10.0 mi North 13.8 mph - N/A   Scattered Clouds
6:54 PM 89.1 °F 91.3 °F 66.0 °F 46% 29.98 in 10.0 mi NNW 15.0 mph - N/A   Scattered Clouds
7:54 PM 84.9 °F 85.0 °F 61.0 °F 44% 30.00 in 10.0 mi NNW 9.2 mph - N/A   Partly Cloudy
8:54 PM 78.1 °F - 55.9 °F 46% 30.01 in 10.0 mi NNE 5.8 mph - N/A   Partly Cloudy
9:54 PM 73.0 °F - 55.0 °F 53% 30.04 in 10.0 mi NE 3.5 mph - N/A   Clear
10:54 PM 70.0 °F - 57.0 °F 63% 30.03 in 10.0 mi ENE 4.6 mph - N/A   Clear
11:54 PM 70.0 °F - 59.0 °F 68% 30.05 in 10.0 mi North 5.8 mph - N/A   Clear